Time,TemperatureF,DewpointF,PressureIn,WindDirection,WindDirectionDegrees,WindSpeedMPH,WindSpeedGustMPH,Humidity,HourlyPrecipIn,Conditions,Clouds,dailyrainin,SoftwareType,DateUTC
2013-05-22 00:02:00,62.2,57.3,29.62,SSE,162,0.0,1.1,84,0.00,,,0.00,WeatherDisplay:10.37,2013-05-22 05:02:00,
2013-05-22 00:07:00,61.9,57.0,29.63,SSW,195,1.6,2.3,84,0.00,,,0.00,WeatherDisplay:10.37,2013-05-22 05:07:00,
2013-05-22 00:12:00,61.6,57.4,29.63,SSE,162,2.1,2.3,86,0.00,,,0.00,WeatherDisplay:10.37,2013-05-22 05:12:00,
2013-05-22 00:17:00,61.7,57.5,29.63,South,172,2.4,3.5,86,0.00,,,0.00,WeatherDisplay:10.37,2013-05-22 05:17:00,
2013-05-22 00:22:00,61.8,57.6,29.64,SSW,195,2.5,3.5,86,0.00,,,0.00,WeatherDisplay:10.37,2013-05-22 05:22:00,
2013-05-22 00:27:00,61.9,57.7,29.63,SSW,205,0.9,1.1,86,0.00,,,0.00,WeatherDisplay:10.37,2013-05-22 05:27:00,
2013-05-22 00:32:00,62.1,57.9,29.63,SSW,197,2.1,3.5,86,0.00,,,0.00,WeatherDisplay:10.37,2013-05-22 05:32:00,
2013-05-22 00:37:00,62.2,57.6,29.63,South,180,1.7,3.5,85,0.00,,,0.00,WeatherDisplay:10.37,2013-05-22 05:37:00,
2013-05-22 00:42:00,62.2,57.6,29.63,SSW,193,2.6,3.5,85,0.00,,,0.00,WeatherDisplay:10.37,2013-05-22 05:42:00,
2013-05-22 00:47:00,62.1,57.5,29.63,SSW,195,2.1,3.5,85,0.00,,,0.00,WeatherDisplay:10.37,2013-05-22 05:47:00,
2013-05-22 00:52:00,62.1,57.5,29.63,SW,221,1.0,2.3,85,0.00,,,0.00,WeatherDisplay:10.37,2013-05-22 05:52:00,
2013-05-22 00:57:00,62.4,57.8,29.63,SW,225,1.5,3.5,85,0.00,,,0.00,WeatherDisplay:10.37,2013-05-22 05:57:00,
2013-05-22 01:02:00,62.5,57.9,29.63,SSW,212,2.1,3.5,85,0.00,,,0.00,WeatherDisplay:10.37,2013-05-22 06:02:00,
2013-05-22 01:07:00,62.5,57.9,29.63,SSW,203,2.1,3.5,85,0.00,,,0.00,WeatherDisplay:10.37,2013-05-22 06:07:00,
2013-05-22 01:12:00,62.5,57.6,29.62,South,183,1.1,2.3,84,0.00,,,0.00,WeatherDisplay:10.37,2013-05-22 06:12:00,
2013-05-22 01:17:00,62.0,57.4,29.62,South,178,1.4,2.3,85,0.00,,,0.00,WeatherDisplay:10.37,2013-05-22 06:17:00,
2013-05-22 01:22:00,61.5,56.9,29.62,SSW,210,0.9,2.3,85,0.00,,,0.00,WeatherDisplay:10.37,2013-05-22 06:22:00,
2013-05-22 01:27:00,61.2,57.0,29.62,SW,226,0.4,1.1,86,0.00,,,0.00,WeatherDisplay:10.37,2013-05-22 06:27:00,
2013-05-22 01:32:00,61.2,57.3,29.63,SW,236,2.0,2.3,87,0.00,,,0.00,WeatherDisplay:10.37,2013-05-22 06:32:00,
2013-05-22 01:37:00,60.9,57.0,29.62,West,259,0.0,1.1,87,0.00,,,0.00,WeatherDisplay:10.37,2013-05-22 06:37:00,
2013-05-22 01:42:00,60.9,57.3,29.63,NNW,341,0.0,0.0,88,0.00,,,0.00,WeatherDisplay:10.37,2013-05-22 06:42:00,
2013-05-22 01:47:00,61.2,57.9,29.63,SW,219,2.2,3.5,89,0.00,,,0.00,WeatherDisplay:10.37,2013-05-22 06:47:00,
2013-05-22 01:52:00,62.1,58.2,29.63,SSW,210,2.9,3.5,87,0.00,,,0.00,WeatherDisplay:10.37,2013-05-22 06:52:00,
2013-05-22 01:57:00,62.7,58.5,29.63,SSW,198,3.9,4.0,86,0.00,,,0.00,WeatherDisplay:10.37,2013-05-22 06:57:00,
2013-05-22 02:03:00,63.1,58.5,29.63,SSW,208,3.1,4.6,85,0.00,,,0.00,WeatherDisplay:10.37,2013-05-22 07:03:00,
2013-05-22 02:08:00,63.2,58.6,29.62,SSW,200,2.6,4.6,85,0.00,,,0.00,WeatherDisplay:10.37,2013-05-22 07:08:00,
2013-05-22 02:13:00,63.1,58.5,29.62,SSW,195,3.0,4.0,85,0.00,,,0.00,WeatherDisplay:10.37,2013-05-22 07:13:00,
2013-05-22 02:18:00,62.9,58.6,29.62,SSW,193,3.0,3.5,86,0.00,,,0.00,WeatherDisplay:10.37,2013-05-22 07:18:00,
2013-05-22 02:23:00,62.8,58.5,29.61,South,184,3.7,5.0,86,0.00,,,0.00,WeatherDisplay:10.37,2013-05-22 07:23:00,
2013-05-22 02:28:00,62.8,58.5,29.61,South,190,3.3,3.5,86,0.00,,,0.00,WeatherDisplay:10.37,2013-05-22 07:28:00,
2013-05-22 02:33:00,62.8,58.5,29.61,South,170,2.4,4.0,86,0.00,,,0.00,WeatherDisplay:10.37,2013-05-22 07:33:00,
2013-05-22 02:38:00,62.8,58.9,29.61,South,169,2.7,4.0,87,0.00,,,0.00,WeatherDisplay:10.37,2013-05-22 07:38:00,
2013-05-22 02:43:00,62.7,58.8,29.60,SSE,149,3.7,4.6,87,0.00,,,0.00,WeatherDisplay:10.37,2013-05-22 07:43:00,
2013-05-22 02:48:00,62.7,58.8,29.60,SSE,155,5.1,6.0,87,0.00,,,0.00,WeatherDisplay:10.37,2013-05-22 07:48:00,
2013-05-22 02:53:00,62.8,58.9,29.60,South,169,5.2,5.8,87,0.00,,,0.00,WeatherDisplay:10.37,2013-05-22 07:53:00,
2013-05-22 02:58:00,62.9,59.0,29.60,SSE,165,3.5,4.0,87,0.00,,,0.00,WeatherDisplay:10.37,2013-05-22 07:58:00,
2013-05-22 03:03:00,62.9,59.0,29.60,SSE,166,3.4,3.5,87,0.00,,,0.00,WeatherDisplay:10.37,2013-05-22 08:03:00,
2013-05-22 03:08:00,62.7,58.8,29.60,South,174,3.2,3.5,87,0.00,,,0.00,WeatherDisplay:10.37,2013-05-22 08:08:00,
2013-05-22 03:13:00,62.6,58.7,29.59,South,171,3.1,4.6,87,0.00,,,0.00,WeatherDisplay:10.37,2013-05-22 08:13:00,
2013-05-22 03:18:00,62.5,58.9,29.59,SSW,205,2.1,3.5,88,0.00,,,0.00,WeatherDisplay:10.37,2013-05-22 08:18:00,
2013-05-22 03:23:00,62.5,58.9,29.59,SW,221,1.9,2.3,88,0.00,,,0.00,WeatherDisplay:10.37,2013-05-22 08:23:00,
2013-05-22 03:28:00,62.4,58.8,29.59,SSW,200,2.4,3.5,88,0.00,,,0.00,WeatherDisplay:10.37,2013-05-22 08:28:00,
2013-05-22 03:33:00,62.6,59.0,29.59,West,273,0.4,1.1,88,0.00,,,0.00,WeatherDisplay:10.37,2013-05-22 08:33:00,
2013-05-22 03:38:00,62.3,58.7,29.59,NNE,19,0.0,0.0,88,0.00,,,0.00,WeatherDisplay:10.37,2013-05-22 08:38:00,
2013-05-22 03:43:00,62.2,58.6,29.59,NNE,18,0.0,0.0,88,0.00,,,0.00,WeatherDisplay:10.37,2013-05-22 08:43:00,
2013-05-22 03:48:00,62.1,58.5,29.59,WNW,302,0.1,1.1,88,0.00,,,0.00,WeatherDisplay:10.37,2013-05-22 08:48:00,
2013-05-22 03:53:00,62.0,58.7,29.59,WSW,250,0.0,0.0,89,0.00,,,0.00,WeatherDisplay:10.37,2013-05-22 08:53:00,
2013-05-22 03:58:00,62.2,58.9,29.59,WSW,257,1.3,2.3,89,0.00,,,0.00,WeatherDisplay:10.37,2013-05-22 08:58:00,
2013-05-22 04:03:00,62.3,58.7,29.59,West,275,1.4,3.5,88,0.00,,,0.00,WeatherDisplay:10.37,2013-05-22 09:03:00,
2013-05-22 04:08:00,62.1,58.5,29.59,WNW,284,0.6,1.1,88,0.00,,,0.00,WeatherDisplay:10.37,2013-05-22 09:08:00,
2013-05-22 04:13:00,61.9,58.6,29.59,WSW,238,1.8,3.5,89,0.00,,,0.00,WeatherDisplay:10.37,2013-05-22 09:13:00,
2013-05-22 04:18:00,62.0,58.7,29.59,SW,235,3.4,4.6,89,0.00,,,0.00,WeatherDisplay:10.37,2013-05-22 09:18:00,
2013-05-22 04:23:00,62.0,58.7,29.60,WSW,243,5.0,6.9,89,0.00,,,0.00,WeatherDisplay:10.37,2013-05-22 09:23:00,
2013-05-22 04:28:00,62.2,58.6,29.60,WSW,243,5.0,6.9,88,0.00,,,0.00,WeatherDisplay:10.37,2013-05-22 09:28:00,
2013-05-22 04:33:00,62.3,58.7,29.60,WSW,245,5.1,6.9,88,0.00,,,0.00,WeatherDisplay:10.37,2013-05-22 09:33:00,
2013-05-22 04:38:00,62.4,58.8,29.60,SW,231,6.3,8.1,88,0.00,,,0.00,WeatherDisplay:10.37,2013-05-22 09:38:00,
2013-05-22 04:43:00,62.4,58.8,29.59,SW,222,3.3,5.8,88,0.00,,,0.00,WeatherDisplay:10.37,2013-05-22 09:43:00,
2013-05-22 04:49:00,62.4,58.8,29.59,WSW,238,4.0,4.6,88,0.00,,,0.00,WeatherDisplay:10.37,2013-05-22 09:49:00,
2013-05-22 04:53:00,62.3,58.7,29.60,SW,231,4.0,4.0,88,0.00,,,0.00,WeatherDisplay:10.37,2013-05-22 09:53:00,
2013-05-22 04:59:00,62.2,58.9,29.60,WSW,238,3.9,4.6,89,0.00,,,0.00,WeatherDisplay:10.37,2013-05-22 09:59:00,
2013-05-22 05:04:00,62.1,58.8,29.60,SSW,207,4.1,4.1,89,0.00,,,0.00,WeatherDisplay:10.37,2013-05-22 10:04:00,
2013-05-22 05:09:00,62.0,58.7,29.60,SW,229,3.9,5.0,89,0.00,,,0.00,WeatherDisplay:10.37,2013-05-22 10:09:00,
2013-05-22 05:14:00,62.0,58.7,29.60,SW,214,4.0,5.8,89,0.00,,,0.00,WeatherDisplay:10.37,2013-05-22 10:14:00,
2013-05-22 05:19:00,61.9,58.6,29.60,SW,218,4.2,5.8,89,0.00,,,0.00,WeatherDisplay:10.37,2013-05-22 10:19:00,
2013-05-22 05:24:00,61.9,58.9,29.59,SW,225,3.6,5.8,90,0.00,,,0.00,WeatherDisplay:10.37,2013-05-22 10:24:00,
2013-05-22 05:29:00,61.8,58.8,29.59,SW,227,2.9,3.5,90,0.00,,,0.00,WeatherDisplay:10.37,2013-05-22 10:29:00,
2013-05-22 05:34:00,61.7,58.7,29.59,SW,224,1.7,3.5,90,0.00,,,0.00,WeatherDisplay:10.37,2013-05-22 10:34:00,
2013-05-22 05:39:00,61.6,58.6,29.59,SW,224,1.6,2.3,90,0.00,,,0.00,WeatherDisplay:10.37,2013-05-22 10:39:00,
2013-05-22 05:44:00,61.6,58.6,29.59,WSW,245,1.0,2.3,90,0.00,,,0.00,WeatherDisplay:10.37,2013-05-22 10:44:00,
2013-05-22 05:49:00,61.6,58.9,29.60,WSW,246,1.8,3.5,91,0.00,,,0.00,WeatherDisplay:10.37,2013-05-22 10:49:00,
2013-05-22 05:54:00,61.6,58.9,29.60,West,264,3.4,4.0,91,0.00,,,0.00,WeatherDisplay:10.37,2013-05-22 10:54:00,
2013-05-22 05:59:00,61.5,58.8,29.60,WSW,252,4.3,5.8,91,0.00,,,0.00,WeatherDisplay:10.37,2013-05-22 10:59:00,
2013-05-22 06:04:00,61.5,58.8,29.60,West,279,4.1,5.8,91,0.00,,,0.00,WeatherDisplay:10.37,2013-05-22 11:04:00,
2013-05-22 06:09:00,61.3,58.7,29.60,West,269,3.0,4.0,91,0.00,,,0.00,WeatherDisplay:10.37,2013-05-22 11:09:00,
2013-05-22 06:14:00,61.2,58.6,29.60,West,277,3.0,3.5,91,0.00,,,0.00,WeatherDisplay:10.37,2013-05-22 11:14:00,
2013-05-22 06:19:00,61.1,58.8,29.61,West,274,3.9,5.8,92,0.00,,,0.00,WeatherDisplay:10.37,2013-05-22 11:19:00,
2013-05-22 06:24:00,61.1,58.8,29.60,WNW,284,2.2,3.5,92,0.00,,,0.00,WeatherDisplay:10.37,2013-05-22 11:24:00,
2013-05-22 06:29:00,61.0,58.7,29.60,West,278,2.4,3.5,92,0.00,,,0.00,WeatherDisplay:10.37,2013-05-22 11:29:00,
2013-05-22 06:34:00,61.0,58.7,29.61,West,277,1.2,2.3,92,0.00,,,0.00,WeatherDisplay:10.37,2013-05-22 11:34:00,
2013-05-22 06:39:00,60.9,58.6,29.61,West,271,2.4,3.5,92,0.00,,,0.00,WeatherDisplay:10.37,2013-05-22 11:39:00,
2013-05-22 06:44:00,60.9,58.6,29.61,West,269,2.4,3.5,92,0.00,,,0.00,WeatherDisplay:10.37,2013-05-22 11:44:00,
2013-05-22 06:49:00,60.9,58.6,29.61,West,262,1.8,3.5,92,0.00,,,0.00,WeatherDisplay:10.37,2013-05-22 11:49:00,
2013-05-22 06:54:00,60.9,58.6,29.61,West,273,1.5,2.3,92,0.00,,,0.00,WeatherDisplay:10.37,2013-05-22 11:54:00,
2013-05-22 06:59:00,60.9,58.6,29.61,West,264,0.5,2.3,92,0.00,,,0.00,WeatherDisplay:10.37,2013-05-22 11:59:00,
2013-05-22 07:04:00,60.9,58.3,29.60,West,275,0.0,0.0,91,0.00,,,0.00,WeatherDisplay:10.37,2013-05-22 12:04:00,
2013-05-22 07:09:00,60.9,58.3,29.58,NNE,20,0.0,1.1,91,0.00,,,0.00,WeatherDisplay:10.37,2013-05-22 12:09:00,
2013-05-22 07:14:00,61.0,58.7,29.59,NNE,20,0.0,0.0,92,0.00,,,0.00,WeatherDisplay:10.37,2013-05-22 12:14:00,
2013-05-22 07:19:00,61.0,58.4,29.59,NNE,18,0.0,0.0,91,0.00,,,0.00,WeatherDisplay:10.37,2013-05-22 12:19:00,
2013-05-22 07:24:00,61.0,58.7,29.60,West,271,1.9,2.3,92,0.01,RA,,0.01,WeatherDisplay:10.37,2013-05-22 12:24:00,
2013-05-22 07:29:00,61.1,59.1,29.61,West,263,4.2,5.0,93,0.01,RA,,0.01,WeatherDisplay:10.37,2013-05-22 12:29:00,
2013-05-22 07:34:00,61.0,58.7,29.62,West,259,6.4,8.0,92,0.01,,,0.01,WeatherDisplay:10.37,2013-05-22 12:34:00,
2013-05-22 07:39:00,61.0,58.7,29.61,West,262,3.4,4.6,92,0.01,,,0.01,WeatherDisplay:10.37,2013-05-22 12:39:00,
2013-05-22 07:44:00,61.1,58.8,29.60,WNW,290,1.9,3.5,92,0.01,,,0.01,WeatherDisplay:10.37,2013-05-22 12:44:00,
2013-05-22 07:50:00,61.1,58.5,29.60,WNW,297,2.9,3.5,91,0.01,,,0.01,WeatherDisplay:10.37,2013-05-22 12:50:00,
2013-05-22 07:55:00,61.2,58.6,29.60,WNW,295,3.0,3.5,91,0.01,,,0.01,WeatherDisplay:10.37,2013-05-22 12:55:00,
2013-05-22 08:00:00,61.3,58.3,29.61,WNW,293,3.5,4.6,90,0.01,,,0.01,WeatherDisplay:10.37,2013-05-22 13:00:00,
2013-05-22 08:05:00,61.8,59.1,29.61,West,281,3.0,4.6,91,0.01,,,0.01,WeatherDisplay:10.37,2013-05-22 13:05:00,
2013-05-22 08:10:00,62.4,59.4,29.61,WNW,288,3.4,4.6,90,0.01,,,0.01,WeatherDisplay:10.37,2013-05-22 13:10:00,
2013-05-22 08:15:00,62.6,59.0,29.61,WNW,294,3.0,6.0,88,0.01,,,0.01,WeatherDisplay:10.37,2013-05-22 13:15:00,
2013-05-22 08:20:00,62.6,58.7,29.61,WNW,296,3.0,6.0,87,0.01,,,0.01,WeatherDisplay:10.37,2013-05-22 13:20:00,
2013-05-22 08:25:00,62.8,58.9,29.61,WNW,297,2.0,5.0,87,0.00,,,0.01,WeatherDisplay:10.37,2013-05-22 13:25:00,
2013-05-22 08:30:00,62.9,58.3,29.62,WNW,284,2.3,3.5,85,0.00,,,0.01,WeatherDisplay:10.37,2013-05-22 13:30:00,
2013-05-22 08:35:00,62.9,57.7,29.61,WNW,284,2.7,4.0,83,0.00,,,0.01,WeatherDisplay:10.37,2013-05-22 13:35:00,
2013-05-22 08:40:00,63.0,57.8,29.62,WNW,291,3.2,4.6,83,0.00,,,0.01,WeatherDisplay:10.37,2013-05-22 13:40:00,
2013-05-22 08:45:00,63.2,57.9,29.62,WNW,291,2.5,3.5,83,0.00,,,0.01,WeatherDisplay:10.37,2013-05-22 13:45:00,
2013-05-22 08:50:00,63.2,57.9,29.62,WNW,290,1.7,3.5,83,0.00,,,0.01,WeatherDisplay:10.37,2013-05-22 13:50:00,
2013-05-22 08:55:00,63.3,57.7,29.62,WNW,293,2.0,3.0,82,0.00,,,0.01,WeatherDisplay:10.37,2013-05-22 13:55:00,
2013-05-22 09:00:00,63.4,57.5,29.62,West,278,2.8,4.0,81,0.00,,,0.01,WeatherDisplay:10.37,2013-05-22 14:00:00,
2013-05-22 09:05:00,63.6,58.0,29.62,West,281,2.7,3.5,82,0.00,,,0.01,WeatherDisplay:10.37,2013-05-22 14:05:00,
2013-05-22 09:10:00,63.7,57.4,29.62,West,280,4.5,5.8,80,0.00,,,0.01,WeatherDisplay:10.37,2013-05-22 14:10:00,
2013-05-22 09:15:00,64.0,57.7,29.62,West,274,4.5,5.8,80,0.00,,,0.01,WeatherDisplay:10.37,2013-05-22 14:15:00,
2013-05-22 09:20:00,64.1,57.1,29.62,WNW,286,4.5,5.8,78,0.00,,,0.01,WeatherDisplay:10.37,2013-05-22 14:20:00,
2013-05-22 09:25:00,64.2,57.5,29.63,WNW,285,4.1,4.6,79,0.00,,,0.01,WeatherDisplay:10.37,2013-05-22 14:25:00,
2013-05-22 09:30:00,64.4,57.0,29.63,West,269,5.4,8.1,77,0.00,,,0.01,WeatherDisplay:10.37,2013-05-22 14:30:00,
2013-05-22 09:35:00,64.6,57.2,29.62,WNW,282,5.3,7.0,77,0.00,,,0.01,WeatherDisplay:10.37,2013-05-22 14:35:00,
2013-05-22 09:41:00,64.7,57.0,29.63,WNW,285,5.6,7.0,76,0.00,,,0.01,WeatherDisplay:10.37,2013-05-22 14:41:00,
2013-05-22 09:46:00,64.9,57.5,29.63,West,278,5.5,6.9,77,0.00,,,0.01,WeatherDisplay:10.37,2013-05-22 14:46:00,
2013-05-22 09:51:00,65.3,57.2,29.63,WNW,284,6.7,9.2,75,0.00,,,0.01,WeatherDisplay:10.37,2013-05-22 14:51:00,
2013-05-22 09:56:00,65.6,55.9,29.63,WNW,293,7.4,10.4,71,0.00,,,0.01,WeatherDisplay:10.37,2013-05-22 14:56:00,
2013-05-22 10:01:00,65.7,56.0,29.63,West,271,7.0,11.5,71,0.00,,,0.01,WeatherDisplay:10.37,2013-05-22 15:01:00,
2013-05-22 10:06:00,65.9,56.6,29.63,West,275,6.0,8.1,72,0.00,,,0.01,WeatherDisplay:10.37,2013-05-22 15:06:00,
2013-05-22 10:11:00,65.9,56.6,29.63,West,271,5.2,6.9,72,0.00,,,0.01,WeatherDisplay:10.37,2013-05-22 15:11:00,
2013-05-22 10:16:00,65.7,56.0,29.64,West,274,4.4,5.8,71,0.00,,,0.01,WeatherDisplay:10.37,2013-05-22 15:16:00,
2013-05-22 10:21:00,65.7,55.6,29.64,West,266,6.1,6.9,70,0.00,,,0.01,WeatherDisplay:10.37,2013-05-22 15:21:00,
2013-05-22 10:26:00,65.8,56.1,29.64,WSW,256,5.0,8.0,71,0.00,,,0.01,WeatherDisplay:10.37,2013-05-22 15:26:00,
2013-05-22 10:31:00,65.9,55.0,29.64,West,263,4.2,5.8,68,0.00,,,0.01,WeatherDisplay:10.37,2013-05-22 15:31:00,
2013-05-22 10:36:00,66.0,55.1,29.64,West,275,5.1,5.8,68,0.00,,,0.01,WeatherDisplay:10.37,2013-05-22 15:36:00,
2013-05-22 10:41:00,66.0,55.1,29.65,WSW,242,4.9,7.0,68,0.00,,,0.01,WeatherDisplay:10.37,2013-05-22 15:41:00,
2013-05-22 10:46:00,66.1,54.0,29.65,West,265,5.4,6.9,65,0.00,,,0.01,WeatherDisplay:10.37,2013-05-22 15:46:00,
2013-05-22 10:51:00,66.3,55.0,29.64,West,271,4.5,5.0,67,0.00,,,0.01,WeatherDisplay:10.37,2013-05-22 15:51:00,
2013-05-22 10:56:00,66.4,55.1,29.64,West,276,3.0,4.0,67,0.00,,,0.01,WeatherDisplay:10.37,2013-05-22 15:56:00,
2013-05-22 11:01:00,66.6,54.5,29.64,West,259,3.2,4.6,65,0.00,,,0.01,WeatherDisplay:10.37,2013-05-22 16:01:00,
2013-05-22 11:06:00,67.1,54.5,29.65,West,277,5.4,6.9,64,0.00,,,0.01,WeatherDisplay:10.37,2013-05-22 16:06:00,
2013-05-22 11:11:00,67.2,55.0,29.65,WNW,297,2.2,4.6,65,0.00,,,0.01,WeatherDisplay:10.37,2013-05-22 16:11:00,
2013-05-22 11:16:00,67.8,55.6,29.64,West,267,5.2,5.8,65,0.00,,,0.01,WeatherDisplay:10.37,2013-05-22 16:16:00,
2013-05-22 11:21:00,68.1,54.1,29.64,West,263,4.7,8.1,61,0.00,,,0.01,WeatherDisplay:10.37,2013-05-22 16:21:00,
2013-05-22 11:26:00,68.3,53.9,29.64,West,280,8.6,12.7,60,0.00,,,0.01,WeatherDisplay:10.37,2013-05-22 16:26:00,
2013-05-22 11:32:00,68.9,53.5,29.64,WNW,295,6.4,8.1,58,0.00,,,0.01,WeatherDisplay:10.37,2013-05-22 16:32:00,
2013-05-22 11:37:00,69.2,55.2,29.64,WNW,284,4.2,5.8,61,0.00,,,0.01,WeatherDisplay:10.37,2013-05-22 16:37:00,
2013-05-22 11:42:00,69.4,54.4,29.64,WNW,285,8.5,13.0,59,0.00,,,0.01,WeatherDisplay:10.37,2013-05-22 16:42:00,
2013-05-22 11:47:00,70.0,54.1,29.64,West,274,9.8,12.7,57,0.00,,,0.01,WeatherDisplay:10.37,2013-05-22 16:47:00,
2013-05-22 11:52:00,70.4,54.0,29.64,WSW,245,13.4,16.1,56,0.00,,,0.01,WeatherDisplay:10.37,2013-05-22 16:52:00,
2013-05-22 11:57:00,70.4,55.4,29.64,WSW,243,7.6,11.0,59,0.00,,,0.01,WeatherDisplay:10.37,2013-05-22 16:57:00,
2013-05-22 12:02:00,70.9,54.4,29.64,West,267,9.4,11.5,56,0.00,,,0.01,WeatherDisplay:10.37,2013-05-22 17:02:00,
2013-05-22 12:07:00,70.3,54.8,29.64,WNW,284,6.6,8.1,58,0.00,,,0.01,WeatherDisplay:10.37,2013-05-22 17:07:00,
2013-05-22 12:12:00,70.3,54.3,29.64,WSW,258,10.2,11.5,57,0.00,,,0.01,WeatherDisplay:10.37,2013-05-22 17:12:00,
2013-05-22 12:17:00,70.3,55.3,29.64,West,269,9.2,11.5,59,0.00,,,0.01,WeatherDisplay:10.37,2013-05-22 17:17:00,
2013-05-22 12:22:00,69.9,54.9,29.64,SW,217,8.7,12.7,59,0.00,,,0.01,WeatherDisplay:10.37,2013-05-22 17:22:00,
2013-05-22 12:27:00,69.5,55.0,29.64,West,274,9.1,11.5,60,0.00,,,0.01,WeatherDisplay:10.37,2013-05-22 17:27:00,
2013-05-22 12:32:00,69.2,54.3,29.65,West,269,9.7,11.5,59,0.00,,,0.01,WeatherDisplay:10.37,2013-05-22 17:32:00,
2013-05-22 12:37:00,69.3,54.8,29.65,WSW,248,8.9,11.5,60,0.00,,,0.01,WeatherDisplay:10.37,2013-05-22 17:37:00,
2013-05-22 12:42:00,69.2,54.7,29.65,SW,231,9.8,11.5,60,0.00,,,0.01,WeatherDisplay:10.37,2013-05-22 17:42:00,
2013-05-22 12:47:00,68.9,54.9,29.65,WNW,286,10.7,11.5,61,0.00,,,0.01,WeatherDisplay:10.37,2013-05-22 17:47:00,
2013-05-22 12:52:00,68.3,54.8,29.65,West,271,10.4,11.0,62,0.00,,,0.01,WeatherDisplay:10.37,2013-05-22 17:52:00,
2013-05-22 12:57:00,68.5,55.0,29.64,SW,228,10.0,12.7,62,0.00,,,0.01,WeatherDisplay:10.37,2013-05-22 17:57:00,
2013-05-22 13:02:00,69.7,54.7,29.65,West,271,10.8,14.0,59,0.00,,,0.01,WeatherDisplay:10.37,2013-05-22 18:02:00,
2013-05-22 13:07:00,70.2,55.2,29.65,West,267,11.6,16.1,59,0.00,,,0.01,WeatherDisplay:10.37,2013-05-22 18:07:00,
2013-05-22 13:12:00,70.3,54.8,29.64,WSW,250,11.0,15.0,58,0.00,,,0.01,WeatherDisplay:10.37,2013-05-22 18:12:00,
2013-05-22 13:17:00,70.9,55.4,29.65,West,281,10.5,11.5,58,0.00,,,0.01,WeatherDisplay:10.37,2013-05-22 18:17:00,
2013-05-22 13:22:00,71.1,54.6,29.65,WSW,247,11.5,12.7,56,0.00,,,0.01,WeatherDisplay:10.37,2013-05-22 18:22:00,
2013-05-22 13:27:00,70.6,55.1,29.64,West,262,10.2,12.7,58,0.00,,,0.01,WeatherDisplay:10.37,2013-05-22 18:27:00,
2013-05-22 13:33:00,70.2,55.7,29.64,West,267,8.8,15.0,60,0.00,,,0.01,WeatherDisplay:10.37,2013-05-22 18:33:00,
2013-05-22 13:38:00,70.2,55.7,29.64,WSW,241,10.5,11.5,60,0.00,,,0.01,WeatherDisplay:10.37,2013-05-22 18:38:00,
2013-05-22 13:43:00,70.2,55.2,29.64,West,270,13.5,18.4,59,0.00,,,0.01,WeatherDisplay:10.37,2013-05-22 18:43:00,
2013-05-22 13:48:00,70.2,55.2,29.64,WSW,252,8.9,13.8,59,0.00,,,0.01,WeatherDisplay:10.37,2013-05-22 18:48:00,
2013-05-22 13:53:00,69.7,55.2,29.65,WNW,292,13.6,19.6,60,0.00,,,0.01,WeatherDisplay:10.37,2013-05-22 18:53:00,
2013-05-22 13:58:00,68.7,54.7,29.64,West,273,11.3,13.8,61,0.00,,,0.01,WeatherDisplay:10.37,2013-05-22 18:58:00,
2013-05-22 14:03:00,68.5,55.0,29.65,West,265,10.7,13.8,62,0.00,,,0.01,WeatherDisplay:10.37,2013-05-22 19:03:00,
2013-05-22 14:08:00,68.2,54.7,29.64,WNW,287,8.9,11.5,62,0.00,,,0.01,WeatherDisplay:10.37,2013-05-22 19:08:00,
2013-05-22 14:13:00,68.5,55.0,29.65,West,262,11.0,12.7,62,0.00,,,0.01,WeatherDisplay:10.37,2013-05-22 19:13:00,
2013-05-22 14:18:00,68.1,54.1,29.65,WSW,253,13.3,16.1,61,0.00,,,0.01,WeatherDisplay:10.37,2013-05-22 19:18:00,
2013-05-22 14:23:00,67.9,54.4,29.65,WSW,249,11.5,12.7,62,0.00,,,0.01,WeatherDisplay:10.37,2013-05-22 19:23:00,
2013-05-22 14:28:00,67.8,54.7,29.65,West,281,10.6,15.0,63,0.00,,,0.01,WeatherDisplay:10.37,2013-05-22 19:28:00,
2013-05-22 14:33:00,67.8,54.7,29.65,WNW,284,10.8,13.8,63,0.00,,,0.01,WeatherDisplay:10.37,2013-05-22 19:33:00,
2013-05-22 14:38:00,67.7,54.6,29.65,West,271,11.9,15.0,63,0.00,,,0.01,WeatherDisplay:10.37,2013-05-22 19:38:00,
2013-05-22 14:43:00,68.1,55.0,29.65,WSW,257,9.7,12.7,63,0.00,,,0.01,WeatherDisplay:10.37,2013-05-22 19:43:00,
2013-05-22 14:48:00,68.4,55.3,29.66,West,264,10.5,13.8,63,0.00,,,0.01,WeatherDisplay:10.37,2013-05-22 19:48:00,
2013-05-22 14:53:00,68.0,55.4,29.66,WSW,257,10.3,12.7,64,0.00,,,0.01,WeatherDisplay:10.37,2013-05-22 19:53:00,
2013-05-22 14:58:00,68.1,55.5,29.66,West,270,8.4,11.5,64,0.00,,,0.01,WeatherDisplay:10.37,2013-05-22 19:58:00,
2013-05-22 15:03:00,68.8,56.1,29.66,West,277,9.4,12.7,64,0.00,,,0.01,WeatherDisplay:10.37,2013-05-22 20:03:00,
2013-05-22 15:08:00,68.8,55.7,29.66,West,267,8.8,11.5,63,0.00,,,0.01,WeatherDisplay:10.37,2013-05-22 20:08:00,
2013-05-22 15:13:00,68.9,56.2,29.66,WNW,302,10.3,13.8,64,0.00,,,0.01,WeatherDisplay:10.37,2013-05-22 20:13:00,
2013-05-22 15:18:00,69.1,56.0,29.66,WSW,257,10.0,11.5,63,0.00,,,0.01,WeatherDisplay:10.37,2013-05-22 20:18:00,
2013-05-22 15:23:00,69.3,55.7,29.66,West,281,10.4,13.8,62,0.00,,,0.01,WeatherDisplay:10.37,2013-05-22 20:23:00,
2013-05-22 15:28:00,69.0,55.9,29.66,West,269,8.1,12.7,63,0.00,,,0.01,WeatherDisplay:10.37,2013-05-22 20:28:00,
2013-05-22 15:33:00,68.9,55.8,29.66,West,276,8.7,11.5,63,0.00,,,0.01,WeatherDisplay:10.37,2013-05-22 20:33:00,
2013-05-22 15:38:00,68.4,55.3,29.66,West,264,10.2,13.8,63,0.00,,,0.01,WeatherDisplay:10.37,2013-05-22 20:38:00,
2013-05-22 15:43:00,67.9,55.3,29.66,WSW,257,13.6,15.0,64,0.00,,,0.01,WeatherDisplay:10.37,2013-05-22 20:43:00,
2013-05-22 15:48:00,67.1,55.4,29.66,WSW,255,11.6,12.7,66,0.00,,,0.01,WeatherDisplay:10.37,2013-05-22 20:48:00,
2013-05-22 15:54:00,66.7,55.0,29.66,WSW,252,13.2,16.1,66,0.00,,,0.01,WeatherDisplay:10.37,2013-05-22 20:54:00,
2013-05-22 15:59:00,66.7,55.4,29.66,WSW,250,11.4,13.0,67,0.00,,,0.01,WeatherDisplay:10.37,2013-05-22 20:59:00,
2013-05-22 16:04:00,66.8,55.5,29.66,West,277,11.9,13.8,67,0.00,,,0.01,WeatherDisplay:10.37,2013-05-22 21:04:00,
2013-05-22 16:09:00,67.1,55.4,29.67,West,266,11.7,16.1,66,0.00,,,0.01,WeatherDisplay:10.37,2013-05-22 21:09:00,
2013-05-22 16:14:00,67.0,55.3,29.67,WSW,257,10.6,14.0,66,0.00,,,0.01,WeatherDisplay:10.37,2013-05-22 21:14:00,
2013-05-22 16:19:00,67.0,55.7,29.67,West,260,11.1,13.8,67,0.00,,,0.01,WeatherDisplay:10.37,2013-05-22 21:19:00,
2013-05-22 16:24:00,67.0,55.7,29.67,West,276,10.2,13.8,67,0.00,,,0.01,WeatherDisplay:10.37,2013-05-22 21:24:00,
2013-05-22 16:29:00,67.0,55.7,29.67,West,259,11.9,13.8,67,0.00,,,0.01,WeatherDisplay:10.37,2013-05-22 21:29:00,
2013-05-22 16:34:00,66.9,55.6,29.67,West,276,11.1,12.7,67,0.00,,,0.01,WeatherDisplay:10.37,2013-05-22 21:34:00,
2013-05-22 16:39:00,66.7,55.4,29.67,West,280,10.1,13.8,67,0.00,,,0.01,WeatherDisplay:10.37,2013-05-22 21:39:00,
2013-05-22 16:44:00,66.6,55.3,29.67,WSW,257,12.0,16.1,67,0.00,,,0.01,WeatherDisplay:10.37,2013-05-22 21:44:00,
2013-05-22 16:49:00,66.3,55.4,29.67,WSW,250,12.2,13.0,68,0.00,,,0.01,WeatherDisplay:10.37,2013-05-22 21:49:00,
2013-05-22 16:54:00,66.1,55.2,29.67,West,262,11.9,15.0,68,0.00,,,0.01,WeatherDisplay:10.37,2013-05-22 21:54:00,
2013-05-22 16:59:00,66.0,55.1,29.68,SW,231,11.5,13.8,68,0.00,,,0.01,WeatherDisplay:10.37,2013-05-22 21:59:00,
2013-05-22 17:04:00,66.1,55.6,29.68,West,259,10.4,13.0,69,0.00,,,0.01,WeatherDisplay:10.37,2013-05-22 22:04:00,
2013-05-22 17:09:00,66.1,55.2,29.68,WSW,241,11.4,13.8,68,0.00,,,0.01,WeatherDisplay:10.37,2013-05-22 22:09:00,
2013-05-22 17:14:00,66.3,55.4,29.68,West,271,10.8,13.8,68,0.00,,,0.01,WeatherDisplay:10.37,2013-05-22 22:14:00,
2013-05-22 17:19:00,66.7,55.8,29.68,WNW,295,11.7,16.1,68,0.00,,,0.01,WeatherDisplay:10.37,2013-05-22 22:19:00,
2013-05-22 17:24:00,66.6,55.7,29.68,West,276,9.9,14.0,68,0.00,,,0.01,WeatherDisplay:10.37,2013-05-22 22:24:00,
2013-05-22 17:29:00,66.1,56.0,29.68,West,262,11.3,15.0,70,0.00,,,0.01,WeatherDisplay:10.37,2013-05-22 22:29:00,
2013-05-22 17:34:00,65.5,55.8,29.68,WNW,295,10.6,12.7,71,0.00,,,0.01,WeatherDisplay:10.37,2013-05-22 22:34:00,
2013-05-22 17:39:00,65.3,55.7,29.68,West,276,10.5,12.7,71,0.00,,,0.01,WeatherDisplay:10.37,2013-05-22 22:39:00,
2013-05-22 17:45:00,65.2,55.2,29.68,West,277,12.2,16.0,70,0.00,,,0.01,WeatherDisplay:10.37,2013-05-22 22:45:00,
2013-05-22 17:50:00,65.4,55.4,29.68,West,278,8.4,11.5,70,0.00,,,0.01,WeatherDisplay:10.37,2013-05-22 22:50:00,
2013-05-22 17:55:00,65.8,55.7,29.69,West,260,11.5,11.5,70,0.00,,,0.01,WeatherDisplay:10.37,2013-05-22 22:55:00,
2013-05-22 18:00:00,65.6,55.2,29.68,West,269,12.8,17.3,69,0.00,,,0.01,WeatherDisplay:10.37,2013-05-22 23:00:00,
2013-05-22 18:05:00,65.1,55.1,29.68,West,271,11.7,15.0,70,0.00,,,0.01,WeatherDisplay:10.37,2013-05-22 23:05:00,
2013-05-22 18:10:00,64.8,55.6,29.68,West,271,9.9,11.5,72,0.00,,,0.01,WeatherDisplay:10.37,2013-05-22 23:10:00,
2013-05-22 18:15:00,64.5,56.0,29.68,WNW,300,7.4,11.5,74,0.00,,,0.01,WeatherDisplay:10.37,2013-05-22 23:15:00,
2013-05-22 18:20:00,64.1,55.6,29.68,West,278,11.0,12.7,74,0.00,,,0.01,WeatherDisplay:10.37,2013-05-22 23:20:00,
2013-05-22 18:25:00,63.9,55.4,29.68,West,280,7.8,9.2,74,0.00,,,0.01,WeatherDisplay:10.37,2013-05-22 23:25:00,
2013-05-22 18:30:00,63.8,55.7,29.68,West,277,7.0,12.0,75,0.00,,,0.01,WeatherDisplay:10.37,2013-05-22 23:30:00,
2013-05-22 18:35:00,63.7,55.6,29.69,WSW,255,7.6,11.0,75,0.00,,,0.01,WeatherDisplay:10.37,2013-05-22 23:35:00,
2013-05-22 18:40:00,63.6,55.9,29.68,WSW,249,8.6,11.5,76,0.00,,,0.01,WeatherDisplay:10.37,2013-05-22 23:40:00,
2013-05-22 18:45:00,63.4,55.7,29.68,West,274,9.4,11.5,76,0.00,,,0.01,WeatherDisplay:10.37,2013-05-22 23:45:00,
2013-05-22 18:50:00,63.4,56.1,29.69,West,260,7.5,9.2,77,0.00,,,0.01,WeatherDisplay:10.37,2013-05-22 23:50:00,
2013-05-22 18:55:00,63.4,56.1,29.69,WSW,257,7.7,11.0,77,0.00,,,0.01,WeatherDisplay:10.37,2013-05-22 23:55:00,
2013-05-22 19:00:00,63.4,56.1,29.69,WSW,245,9.0,11.5,77,0.00,,,0.01,WeatherDisplay:10.37,2013-05-23 00:00:00,
2013-05-22 19:05:00,63.3,56.0,29.69,West,263,9.7,12.7,77,0.00,,,0.01,WeatherDisplay:10.37,2013-05-23 00:05:00,
2013-05-22 19:10:00,63.2,55.9,29.69,WSW,256,9.3,11.5,77,0.00,,,0.01,WeatherDisplay:10.37,2013-05-23 00:10:00,
2013-05-22 19:15:00,63.2,56.2,29.69,WNW,288,8.1,10.4,78,0.00,,,0.01,WeatherDisplay:10.37,2013-05-23 00:15:00,
2013-05-22 19:20:00,63.2,56.2,29.69,WSW,257,7.2,10.4,78,0.00,,,0.01,WeatherDisplay:10.37,2013-05-23 00:20:00,
2013-05-22 19:25:00,63.2,56.2,29.69,WSW,257,7.0,9.2,78,0.00,,,0.01,WeatherDisplay:10.37,2013-05-23 00:25:00,
2013-05-22 19:30:00,63.2,56.2,29.69,West,262,6.3,6.9,78,0.00,,,0.01,WeatherDisplay:10.37,2013-05-23 00:30:00,
2013-05-22 19:35:00,63.2,56.2,29.69,West,278,4.4,6.9,78,0.00,,,0.01,WeatherDisplay:10.37,2013-05-23 00:35:00,
2013-05-22 19:40:00,63.2,56.2,29.70,West,278,5.8,8.1,78,0.00,,,0.01,WeatherDisplay:10.37,2013-05-23 00:40:00,
2013-05-22 19:45:00,63.2,56.2,29.70,West,271,5.7,6.9,78,0.00,,,0.01,WeatherDisplay:10.37,2013-05-23 00:45:00,
2013-05-22 19:50:00,63.2,56.2,29.70,WSW,253,5.7,8.1,78,0.00,,,0.01,WeatherDisplay:10.37,2013-05-23 00:50:00,
2013-05-22 19:55:00,63.1,56.1,29.70,West,267,4.8,5.8,78,0.00,,,0.01,WeatherDisplay:10.37,2013-05-23 00:55:00,
2013-05-22 20:00:00,63.0,56.0,29.70,West,271,6.5,10.4,78,0.00,,,0.01,WeatherDisplay:10.37,2013-05-23 01:00:00,
2013-05-22 20:05:00,63.0,56.0,29.70,WSW,255,5.6,6.9,78,0.00,,,0.01,WeatherDisplay:10.37,2013-05-23 01:05:00,
2013-05-22 20:10:00,62.9,56.3,29.70,West,273,6.7,8.1,79,0.00,,,0.01,WeatherDisplay:10.37,2013-05-23 01:10:00,
2013-05-22 20:15:00,62.9,56.3,29.70,West,274,6.5,8.0,79,0.00,,,0.01,WeatherDisplay:10.37,2013-05-23 01:15:00,
2013-05-22 20:21:00,62.9,56.3,29.70,West,280,6.8,10.4,79,0.00,,,0.01,WeatherDisplay:10.37,2013-05-23 01:21:00,
2013-05-22 20:26:00,62.8,56.2,29.70,West,275,7.9,9.2,79,0.00,,,0.01,WeatherDisplay:10.37,2013-05-23 01:26:00,
2013-05-22 20:31:00,62.6,56.0,29.70,West,259,8.8,11.5,79,0.00,,,0.01,WeatherDisplay:10.37,2013-05-23 01:31:00,
2013-05-22 20:36:00,62.3,55.7,29.70,West,276,7.3,11.5,79,0.00,,,0.01,WeatherDisplay:10.37,2013-05-23 01:36:00,
2013-05-22 20:41:00,62.0,55.8,29.71,West,263,6.6,9.0,80,0.00,,,0.01,WeatherDisplay:10.37,2013-05-23 01:41:00,
2013-05-22 20:46:00,61.8,55.9,29.71,WNW,283,8.3,10.4,81,0.00,,,0.01,WeatherDisplay:10.37,2013-05-23 01:46:00,
2013-05-22 20:51:00,61.5,55.6,29.71,West,267,8.7,11.5,81,0.00,,,0.01,WeatherDisplay:10.37,2013-05-23 01:51:00,
2013-05-22 20:56:00,61.3,55.8,29.71,West,278,8.0,9.2,82,0.00,,,0.01,WeatherDisplay:10.37,2013-05-23 01:56:00,
2013-05-22 21:01:00,61.1,55.6,29.72,West,269,6.6,8.1,82,0.00,,,0.01,WeatherDisplay:10.37,2013-05-23 02:01:00,
2013-05-22 21:06:00,60.9,55.7,29.72,West,267,8.0,11.5,83,0.00,,,0.01,WeatherDisplay:10.37,2013-05-23 02:06:00,
2013-05-22 21:11:00,60.8,55.9,29.72,West,278,7.7,10.4,84,0.00,,,0.01,WeatherDisplay:10.37,2013-05-23 02:11:00,
2013-05-22 21:16:00,60.7,56.2,29.72,West,273,7.5,10.4,85,0.00,,,0.01,WeatherDisplay:10.37,2013-05-23 02:16:00,
2013-05-22 21:21:00,60.6,56.1,29.72,WSW,250,6.4,9.2,85,0.00,,,0.01,WeatherDisplay:10.37,2013-05-23 02:21:00,
2013-05-22 21:26:00,60.5,56.0,29.73,West,259,8.4,10.4,85,0.00,,,0.01,WeatherDisplay:10.37,2013-05-23 02:26:00,
2013-05-22 21:31:00,60.4,56.2,29.73,West,270,5.6,6.9,86,0.00,,,0.01,WeatherDisplay:10.37,2013-05-23 02:31:00,
2013-05-22 21:36:00,60.3,56.1,29.73,West,275,6.8,9.2,86,0.00,,,0.01,WeatherDisplay:10.37,2013-05-23 02:36:00,
2013-05-22 21:41:00,60.2,56.0,29.73,West,281,7.4,9.2,86,0.00,,,0.01,WeatherDisplay:10.37,2013-05-23 02:41:00,
2013-05-22 21:46:00,60.1,56.2,29.73,WNW,290,6.7,9.2,87,0.00,,,0.01,WeatherDisplay:10.37,2013-05-23 02:46:00,
2013-05-22 21:51:00,60.0,56.1,29.73,West,276,8.0,11.5,87,0.00,,,0.01,WeatherDisplay:10.37,2013-05-23 02:51:00,
2013-05-22 21:56:00,60.0,56.1,29.73,West,277,6.3,8.1,87,0.00,,,0.01,WeatherDisplay:10.37,2013-05-23 02:56:00,
2013-05-22 22:01:00,60.0,56.1,29.74,West,280,6.9,9.2,87,0.00,CLR,,0.01,WeatherDisplay:10.37,2013-05-23 03:01:00,
2013-05-22 22:06:00,60.0,56.1,29.74,WNW,285,7.5,10.4,87,0.00,CLR,,0.01,WeatherDisplay:10.37,2013-05-23 03:06:00,
2013-05-22 22:11:00,60.0,56.1,29.74,WNW,282,7.9,11.0,87,0.00,CLR,,0.01,WeatherDisplay:10.37,2013-05-23 03:11:00,
2013-05-22 22:16:00,60.0,56.1,29.74,WNW,286,6.5,9.2,87,0.00,CLR,,0.01,WeatherDisplay:10.37,2013-05-23 03:16:00,
2013-05-22 22:21:00,60.0,56.1,29.74,West,275,5.9,7.0,87,0.00,CLR,,0.01,WeatherDisplay:10.37,2013-05-23 03:21:00,
2013-05-22 22:26:00,60.0,56.1,29.74,West,277,6.0,8.1,87,0.00,CLR,,0.01,WeatherDisplay:10.37,2013-05-23 03:26:00,
2013-05-22 22:31:00,60.0,56.1,29.75,WNW,285,5.9,6.9,87,0.00,CLR,,0.01,WeatherDisplay:10.37,2013-05-23 03:31:00,
2013-05-22 22:36:00,60.0,56.4,29.75,West,267,6.5,9.2,88,0.00,CLR,,0.01,WeatherDisplay:10.37,2013-05-23 03:36:00,
2013-05-22 22:41:00,60.0,56.4,29.75,WNW,283,5.4,8.1,88,0.00,CLR,,0.01,WeatherDisplay:10.37,2013-05-23 03:41:00,
2013-05-22 22:46:00,60.0,56.4,29.75,West,274,5.4,8.1,88,0.00,CLR,,0.01,WeatherDisplay:10.37,2013-05-23 03:46:00,
2013-05-22 22:51:00,59.9,56.3,29.75,WNW,286,4.5,6.9,88,0.00,CLR,,0.01,WeatherDisplay:10.37,2013-05-23 03:51:00,
2013-05-22 22:56:00,59.9,56.3,29.75,West,274,5.1,8.1,88,0.00,CLR,,0.01,WeatherDisplay:10.37,2013-05-23 03:56:00,
2013-05-22 23:01:00,59.9,56.3,29.75,WSW,253,5.3,6.9,88,0.00,CLR,,0.01,WeatherDisplay:10.37,2013-05-23 04:01:00,
2013-05-22 23:02:00,59.9,56.3,29.75,West,276,6.4,8.0,88,0.00,CLR,,0.01,WeatherDisplay:10.37,2013-05-23 04:02:00,
2013-05-22 23:07:00,59.9,56.3,29.75,West,281,5.6,6.9,88,0.00,CLR,,0.01,WeatherDisplay:10.37,2013-05-23 04:07:00,
2013-05-22 23:12:00,60.0,56.4,29.75,West,267,5.5,6.9,88,0.00,CLR,,0.01,WeatherDisplay:10.37,2013-05-23 04:12:00,
2013-05-22 23:17:00,60.0,56.4,29.75,West,270,6.5,9.2,88,0.00,CLR,,0.01,WeatherDisplay:10.37,2013-05-23 04:17:00,
2013-05-22 23:22:00,60.0,56.4,29.75,West,276,7.0,10.4,88,0.00,CLR,,0.01,WeatherDisplay:10.37,2013-05-23 04:22:00,
2013-05-22 23:27:00,60.0,56.4,29.75,West,271,3.7,4.6,88,0.00,CLR,,0.01,WeatherDisplay:10.37,2013-05-23 04:27:00,
2013-05-22 23:32:00,60.0,56.4,29.75,West,271,4.6,6.9,88,0.00,CLR,,0.01,WeatherDisplay:10.37,2013-05-23 04:32:00,
2013-05-22 23:37:00,59.9,56.3,29.75,West,274,5.1,6.9,88,0.00,CLR,,0.01,WeatherDisplay:10.37,2013-05-23 04:37:00,
2013-05-22 23:42:00,59.9,56.0,29.75,West,277,5.3,8.1,87,0.00,CLR,,0.01,WeatherDisplay:10.37,2013-05-23 04:42:00,
2013-05-22 23:47:00,59.9,56.3,29.75,West,274,5.8,8.0,88,0.00,CLR,,0.01,WeatherDisplay:10.37,2013-05-23 04:47:00,
2013-05-22 23:52:00,59.8,56.2,29.75,West,280,4.6,5.8,88,0.00,CLR,,0.01,WeatherDisplay:10.37,2013-05-23 04:52:00,
2013-05-22 23:57:00,59.8,55.6,29.75,West,259,6.5,9.0,86,0.00,CLR,,0.01,WeatherDisplay:10.37,2013-05-23 04:57:00,